Location: Unspecified
(0.0000°N, 0.0000°E)
Time: 11:37:08
(UTC+00:00)

Envisat - Visible Passes

Search period start: 29 May 2020 00:00
Search period end: 08 June 2020 00:00
Orbit: 764 x 766 km, 98.1° (Epoch: 29 May)

Date Brightness Start Highest point End Pass type
(mag) Time Alt. Az. Time Alt. Az. Time Alt. Az.
29 May 3.7 18:14:46 10° S 18:19:45 57° WSW 18:24:43 10° NNW visible
30 May 5.6 05:08:19 10° NE 05:11:58 20° ESE 05:15:38 10° SSE visible
31 May 5.1 18:40:53 10° SSW 18:45:08 27° WSW 18:49:23 10° NW visible
02 Jun 5.8 04:57:56 10° ENE 05:00:42 15° ESE 05:03:27 10° SE visible
02 Jun 5.8 19:08:13 10° SW 19:10:30 13° WSW 19:12:46 10° WNW visible
03 Jun 4.6 18:29:12 10° SSW 18:33:51 37° WSW 18:38:29 10° NW visible
04 Jun 5.0 05:21:39 10° NE 05:26:04 30° ESE 05:30:29 10° SSE visible
05 Jun 6.1 04:48:40 10° E 04:49:25 10° ESE 04:50:09 10° ESE visible
05 Jun 5.6 18:55:50 10° SW 18:59:13 18° WSW 19:02:35 10° WNW visible
06 Jun 4.0 18:17:38 10° S 18:22:32 51° WSW 18:27:27 10° NNW visible
07 Jun 5.4 05:10:52 10° NE 05:14:46 23° ESE 05:18:40 10° SSE visible
